Location: Kuppenheim
(48.8299°N, 8.2568°E)
Time: 07:42:30
(UTC+00:00)

Envisat - Pass Details

Date: 30 November 2022
Orbit: 763 x 765 km, 98.2° (Epoch: 04 February)

Event Time Altitude Azimuth Distance (km) Brightness Sun altitude
Rises 02:51:54 0° 22° (NNE) 3,245 6.6 -39.5°
Reaches altitude 10° 02:54:32 10° 34° (NE) 2,314 5.9 -39.1°
Enters shadow 02:56:18 19° 49° (NE) 1,780 5.3 -38.8°
